Time,TemperatureF,DewpointF,PressureIn,WindDirection,WindDirectionDegrees,WindSpeedMPH,WindSpeedGustMPH,Humidity,HourlyPrecipIn,Conditions,Clouds,dailyrainin,SoftwareType,DateUTC
2013-11-03 00:00:00,40.7,39.6,30.14,ESE,103,0.0,2.0,96,0.00,,,0.00,Wunderground v.1.15,2013-11-03 04:00:00,
2013-11-03 00:05:00,40.6,39.5,30.14,East,101,1.0,2.0,96,0.00,,,0.00,Wunderground v.1.15,2013-11-03 04:05:00,
2013-11-03 00:10:00,40.6,39.5,30.14,ENE,66,0.0,1.0,96,0.00,,,0.00,Wunderground v.1.15,2013-11-03 04:10:00,
2013-11-03 00:15:00,40.6,39.3,30.14,ENE,68,0.0,1.0,95,0.00,,,0.00,Wunderground v.1.15,2013-11-03 04:15:00,
2013-11-03 00:20:00,40.6,39.3,30.14,ENE,68,0.0,0.0,95,0.00,,,0.00,Wunderground v.1.15,2013-11-03 04:20:00,
2013-11-03 00:25:00,40.7,39.4,30.14,ENE,72,0.0,0.0,95,0.00,,,0.00,Wunderground v.1.15,2013-11-03 04:25:00,
2013-11-03 00:30:00,40.6,39.5,30.15,NE,53,0.0,0.0,96,0.00,,,0.00,Wunderground v.1.15,2013-11-03 04:30:00,
2013-11-03 00:35:00,40.6,39.5,30.15,NE,52,0.0,0.0,96,0.00,,,0.00,Wunderground v.1.15,2013-11-03 04:35:00,
2013-11-03 00:40:00,40.6,39.5,30.15,ENE,73,1.0,1.0,96,0.00,,,0.00,Wunderground v.1.15,2013-11-03 04:40:00,
2013-11-03 00:50:00,40.5,39.4,30.15,ENE,65,0.0,0.0,96,0.00,,,0.00,Wunderground v.1.15,2013-11-03 04:50:00,
2013-11-03 00:55:00,40.6,39.5,30.15,ENE,66,0.0,0.0,96,0.00,,,0.00,Wunderground v.1.15,2013-11-03 04:55:00,
2013-11-03 01:00:00,40.5,39.4,30.15,East,86,0.0,0.0,96,0.00,,,0.00,Wunderground v.1.15,2013-11-03 05:00:00,
2013-11-03 01:10:00,40.6,39.5,30.16,East,83,0.0,1.0,96,0.00,,,0.00,Wunderground v.1.15,2013-11-03 05:10:00,
2013-11-03 01:20:00,40.5,39.4,30.16,East,81,0.0,0.0,96,0.00,,,0.00,Wunderground v.1.15,2013-11-03 05:20:00,
2013-11-03 01:25:00,40.6,39.5,30.16,ENE,73,0.0,0.0,96,0.00,,,0.00,Wunderground v.1.15,2013-11-03 05:25:00,
2013-11-03 01:30:00,40.6,39.5,30.16,ENE,73,0.0,0.0,96,0.00,,,0.00,Wunderground v.1.15,2013-11-03 05:30:00,
2013-11-03 01:35:00,40.6,39.5,30.16,ENE,73,0.0,0.0,96,0.00,,,0.00,Wunderground v.1.15,2013-11-03 05:35:00,
2013-11-03 01:40:00,40.6,39.5,30.16,East,81,0.0,0.0,96,0.00,,,0.00,Wunderground v.1.15,2013-11-03 05:40:00,
2013-11-03 01:50:00,40.5,39.4,30.17,ENE,62,0.0,2.0,96,0.00,,,0.00,Wunderground v.1.15,2013-11-03 05:50:00,
2013-11-03 01:55:00,40.5,39.4,30.17,ENE,68,1.0,2.0,96,0.00,,,0.00,Wunderground v.1.15,2013-11-03 05:55:00,
2013-11-03 01:00:00,40.5,39.4,30.17,NNE,16,1.0,2.0,96,0.00,,,0.00,Wunderground v.1.15,2013-11-03 06:00:00,
2013-11-03 01:05:00,40.5,39.4,30.17,ENE,65,2.0,2.0,96,0.00,,,0.00,Wunderground v.1.15,2013-11-03 06:05:00,
2013-11-03 01:10:00,40.5,39.4,30.17,East,84,2.0,5.0,96,0.00,,,0.00,Wunderground v.1.15,2013-11-03 06:10:00,
2013-11-03 01:15:00,40.5,39.4,30.18,ENE,65,2.0,5.0,96,0.00,,,0.00,Wunderground v.1.15,2013-11-03 06:15:00,
2013-11-03 01:25:00,40.4,39.1,30.18,ENE,59,2.0,2.0,95,0.00,,,0.00,Wunderground v.1.15,2013-11-03 06:25:00,
2013-11-03 01:30:00,40.4,38.8,30.18,ESE,110,3.0,3.0,94,0.00,,,0.00,Wunderground v.1.15,2013-11-03 06:30:00,
2013-11-03 01:35:00,40.2,38.1,30.19,ENE,73,4.0,5.0,92,0.00,,,0.00,Wunderground v.1.15,2013-11-03 06:35:00,
2013-11-03 01:40:00,40.0,37.3,30.19,East,82,4.0,4.0,90,0.00,,,0.00,Wunderground v.1.15,2013-11-03 06:40:00,
2013-11-03 01:45:00,39.9,37.2,30.19,ENE,65,4.0,4.0,90,0.00,,,0.00,Wunderground v.1.15,2013-11-03 06:45:00,
2013-11-03 01:55:00,39.7,37.3,30.19,ENE,77,3.0,3.0,91,0.00,,,0.00,Wunderground v.1.15,2013-11-03 06:55:00,
2013-11-03 02:00:00,39.6,37.2,30.20,ENE,75,2.0,2.0,91,0.00,,,0.00,Wunderground v.1.15,2013-11-03 07:00:00,
2013-11-03 02:10:00,39.5,37.4,30.20,East,88,2.0,3.0,92,0.00,,,0.00,Wunderground v.1.15,2013-11-03 07:10:00,
2013-11-03 02:15:00,39.5,37.1,30.20,East,82,2.0,3.0,91,0.00,,,0.00,Wunderground v.1.15,2013-11-03 07:15:00,
2013-11-03 02:20:00,39.5,37.1,30.20,East,94,3.0,3.0,91,0.00,,,0.00,Wunderground v.1.15,2013-11-03 07:20:00,
2013-11-03 02:30:00,39.4,36.7,30.20,ENE,70,4.0,4.0,90,0.00,,,0.00,Wunderground v.1.15,2013-11-03 07:30:00,
2013-11-03 02:35:00,39.3,36.6,30.21,ENE,73,3.0,6.0,90,0.00,,,0.00,Wunderground v.1.15,2013-11-03 07:35:00,
2013-11-03 02:40:00,39.3,36.6,30.21,ENE,77,4.0,6.0,90,0.00,,,0.00,Wunderground v.1.15,2013-11-03 07:40:00,
2013-11-03 02:45:00,39.2,36.2,30.21,ESE,104,5.0,6.0,89,0.00,,,0.00,Wunderground v.1.15,2013-11-03 07:45:00,
2013-11-03 02:50:00,39.2,36.5,30.21,East,94,4.0,4.0,90,0.00,,,0.00,Wunderground v.1.15,2013-11-03 07:50:00,
2013-11-03 02:55:00,39.1,36.4,30.21,NE,55,3.0,4.0,90,0.00,,,0.00,Wunderground v.1.15,2013-11-03 07:55:00,
2013-11-03 03:00:00,39.0,36.3,30.21,East,79,4.0,7.0,90,0.00,,,0.00,Wunderground v.1.15,2013-11-03 08:00:00,
2013-11-03 03:10:00,38.8,36.4,30.21,SE,128,3.0,3.0,91,0.00,,,0.00,Wunderground v.1.15,2013-11-03 08:10:00,
2013-11-03 03:15:00,38.8,36.4,30.22,East,93,3.0,3.0,91,0.00,,,0.00,Wunderground v.1.15,2013-11-03 08:15:00,
2013-11-03 03:20:00,38.7,36.3,30.22,ESE,103,3.0,4.0,91,0.00,,,0.00,Wunderground v.1.15,2013-11-03 08:20:00,
2013-11-03 03:30:00,38.6,36.2,30.23,East,92,3.0,5.0,91,0.00,,,0.00,Wunderground v.1.15,2013-11-03 08:30:00,
2013-11-03 03:35:00,38.6,36.2,30.23,ESE,115,4.0,5.0,91,0.00,,,0.00,Wunderground v.1.15,2013-11-03 08:35:00,
2013-11-03 03:40:00,38.5,36.1,30.23,ENE,63,3.0,3.0,91,0.00,,,0.00,Wunderground v.1.15,2013-11-03 08:40:00,
2013-11-03 03:45:00,38.5,36.1,30.23,ENE,68,3.0,4.0,91,0.00,,,0.00,Wunderground v.1.15,2013-11-03 08:45:00,
2013-11-03 03:50:00,38.5,36.1,30.24,ENE,73,3.0,5.0,91,0.00,,,0.00,Wunderground v.1.15,2013-11-03 08:50:00,
2013-11-03 03:55:00,38.4,36.0,30.24,ENE,76,2.0,5.0,91,0.00,,,0.00,Wunderground v.1.15,2013-11-03 08:55:00,
2013-11-03 04:00:00,38.3,35.9,30.24,ENE,71,2.0,5.0,91,0.00,,,0.00,Wunderground v.1.15,2013-11-03 09:00:00,
2013-11-03 04:10:00,38.1,35.1,30.25,ESE,110,3.0,3.0,89,0.00,,,0.00,Wunderground v.1.15,2013-11-03 09:10:00,
2013-11-03 04:15:00,38.0,35.0,30.25,East,91,3.0,3.0,89,0.00,,,0.00,Wunderground v.1.15,2013-11-03 09:15:00,
2013-11-03 04:20:00,38.0,35.0,30.25,East,82,2.0,2.0,89,0.00,,,0.00,Wunderground v.1.15,2013-11-03 09:20:00,
2013-11-03 04:25:00,37.9,34.9,30.25,East,83,2.0,2.0,89,0.00,,,0.00,Wunderground v.1.15,2013-11-03 09:25:00,
2013-11-03 04:35:00,37.9,34.9,30.26,ENE,65,2.0,2.0,89,0.00,,,0.00,Wunderground v.1.15,2013-11-03 09:35:00,
2013-11-03 04:40:00,37.9,34.9,30.26,NE,55,2.0,2.0,89,0.00,,,0.00,Wunderground v.1.15,2013-11-03 09:40:00,
2013-11-03 04:45:00,37.8,34.8,30.26,ENE,66,2.0,2.0,89,0.00,,,0.00,Wunderground v.1.15,2013-11-03 09:45:00,
2013-11-03 04:50:00,37.8,34.8,30.27,East,80,2.0,2.0,89,0.00,,,0.00,Wunderground v.1.15,2013-11-03 09:50:00,
2013-11-03 04:55:00,37.8,34.8,30.27,East,95,1.0,2.0,89,0.00,,,0.00,Wunderground v.1.15,2013-11-03 09:55:00,
2013-11-03 05:00:00,37.8,34.8,30.27,East,100,0.0,0.0,89,0.00,,,0.00,Wunderground v.1.15,2013-11-03 10:00:00,
2013-11-03 05:10:00,37.7,35.0,30.28,ENE,76,0.0,1.0,90,0.00,,,0.00,Wunderground v.1.15,2013-11-03 10:10:00,
2013-11-03 05:15:00,37.7,35.3,30.28,ENE,76,0.0,1.0,91,0.00,,,0.00,Wunderground v.1.15,2013-11-03 10:15:00,
2013-11-03 05:20:00,37.7,35.3,30.28,ESE,104,0.0,0.0,91,0.00,,,0.00,Wunderground v.1.15,2013-11-03 10:20:00,
2013-11-03 05:25:00,37.7,35.3,30.28,East,88,0.0,0.0,91,0.00,,,0.00,Wunderground v.1.15,2013-11-03 10:25:00,
2013-11-03 05:30:00,37.6,35.2,30.29,East,83,1.0,3.0,91,0.00,,,0.00,Wunderground v.1.15,2013-11-03 10:30:00,
2013-11-03 05:40:00,37.5,35.1,30.29,East,91,2.0,2.0,91,0.00,,,0.00,Wunderground v.1.15,2013-11-03 10:40:00,
2013-11-03 05:45:00,37.4,35.0,30.29,East,82,1.0,2.0,91,0.00,,,0.00,Wunderground v.1.15,2013-11-03 10:45:00,
2013-11-03 05:50:00,37.3,34.9,30.29,East,86,1.0,1.0,91,0.00,,,0.00,Wunderground v.1.15,2013-11-03 10:50:00,
2013-11-03 05:55:00,37.1,34.7,30.29,ENE,68,1.0,4.0,91,0.00,,,0.00,Wunderground v.1.15,2013-11-03 10:55:00,
2013-11-03 06:00:00,37.0,34.6,30.29,East,86,1.0,2.0,91,0.00,,,0.00,Wunderground v.1.15,2013-11-03 11:00:00,
2013-11-03 06:10:00,36.7,34.0,30.29,East,93,1.0,1.0,90,0.00,,,0.00,Wunderground v.1.15,2013-11-03 11:10:00,
2013-11-03 06:15:00,36.5,33.8,30.30,East,84,2.0,3.0,90,0.00,,,0.00,Wunderground v.1.15,2013-11-03 11:15:00,
2013-11-03 06:20:00,36.4,34.0,30.30,East,80,3.0,3.0,91,0.00,,,0.00,Wunderground v.1.15,2013-11-03 11:20:00,
2013-11-03 06:25:00,36.2,33.8,30.30,ENE,71,2.0,3.0,91,0.00,,,0.00,Wunderground v.1.15,2013-11-03 11:25:00,
2013-11-03 06:30:00,35.9,33.5,30.30,East,94,1.0,1.0,91,0.00,,,0.00,Wunderground v.1.15,2013-11-03 11:30:00,
2013-11-03 06:35:00,35.7,33.3,30.30,East,79,1.0,1.0,91,0.00,,,0.00,Wunderground v.1.15,2013-11-03 11:35:00,
2013-11-03 06:40:00,35.6,33.2,30.31,ENE,69,1.0,1.0,91,0.00,,,0.00,Wunderground v.1.15,2013-11-03 11:40:00,
2013-11-03 06:45:00,35.4,33.0,30.31,East,91,1.0,2.0,91,0.00,,,0.00,Wunderground v.1.15,2013-11-03 11:45:00,
2013-11-03 06:50:00,35.2,32.8,30.31,ESE,103,1.0,1.0,91,0.00,,,0.00,Wunderground v.1.15,2013-11-03 11:50:00,
2013-11-03 06:55:00,34.9,32.8,30.31,ENE,77,1.0,1.0,92,0.00,,,0.00,Wunderground v.1.15,2013-11-03 11:55:00,
2013-11-03 07:00:00,34.8,32.7,30.32,ENE,72,1.0,3.0,92,0.00,,,0.00,Wunderground v.1.15,2013-11-03 12:00:00,
2013-11-03 07:10:00,34.8,32.4,30.32,ENE,70,2.0,2.0,91,0.00,,,0.00,Wunderground v.1.15,2013-11-03 12:10:00,
2013-11-03 07:15:00,34.9,32.5,30.32,ENE,77,2.0,2.0,91,0.00,,,0.00,Wunderground v.1.15,2013-11-03 12:15:00,
2013-11-03 07:20:00,35.0,32.6,30.33,ENE,73,1.0,2.0,91,0.00,,,0.00,Wunderground v.1.15,2013-11-03 12:20:00,
2013-11-03 07:25:00,35.1,32.7,30.33,East,84,2.0,2.0,91,0.00,,,0.00,Wunderground v.1.15,2013-11-03 12:25:00,
2013-11-03 07:30:00,35.3,32.9,30.33,East,94,1.0,1.0,91,0.00,,,0.00,Wunderground v.1.15,2013-11-03 12:30:00,
2013-11-03 07:35:00,35.7,33.3,30.33,ESE,110,1.0,1.0,91,0.00,,,0.00,Wunderground v.1.15,2013-11-03 12:35:00,
2013-11-03 07:40:00,36.0,33.6,30.33,ESE,105,1.0,2.0,91,0.00,,,0.00,Wunderground v.1.15,2013-11-03 12:40:00,
2013-11-03 07:50:00,36.3,33.4,30.34,ESE,118,2.0,2.0,89,0.00,,,0.00,Wunderground v.1.15,2013-11-03 12:50:00,
2013-11-03 07:55:00,36.1,33.2,30.35,ESE,110,3.0,3.0,89,0.00,,,0.00,Wunderground v.1.15,2013-11-03 12:55:00,
2013-11-03 08:00:00,36.0,33.1,30.35,East,99,3.0,4.0,89,0.00,,,0.00,Wunderground v.1.15,2013-11-03 13:00:00,
2013-11-03 08:10:00,35.9,33.0,30.35,East,94,3.0,4.0,89,0.00,,,0.00,Wunderground v.1.15,2013-11-03 13:10:00,
2013-11-03 08:20:00,35.9,33.0,30.36,ENE,75,3.0,3.0,89,0.00,,,0.00,Wunderground v.1.15,2013-11-03 13:20:00,
2013-11-03 08:25:00,36.0,33.1,30.36,ENE,58,3.0,3.0,89,0.00,,,0.00,Wunderground v.1.15,2013-11-03 13:25:00,
2013-11-03 08:30:00,36.1,33.2,30.36,East,82,3.0,4.0,89,0.00,,,0.00,Wunderground v.1.15,2013-11-03 13:30:00,
2013-11-03 08:35:00,36.2,32.7,30.36,NE,55,4.0,6.0,87,0.00,,,0.00,Wunderground v.1.15,2013-11-03 13:35:00,
2013-11-03 08:40:00,36.4,33.2,30.36,ESE,120,4.0,4.0,88,0.00,,,0.00,Wunderground v.1.15,2013-11-03 13:40:00,
2013-11-03 08:45:00,36.5,32.7,30.37,ESE,104,4.0,4.0,86,0.00,,,0.00,Wunderground v.1.15,2013-11-03 13:45:00,
2013-11-03 08:55:00,36.7,32.9,30.37,East,99,4.0,4.0,86,0.00,,,0.00,Wunderground v.1.15,2013-11-03 13:55:00,
2013-11-03 09:00:00,36.8,33.3,30.37,ESE,110,4.0,4.0,87,0.00,,,0.00,Wunderground v.1.15,2013-11-03 14:00:00,
2013-11-03 09:10:00,37.1,33.3,30.37,ESE,110,3.0,5.0,86,0.00,,,0.00,Wunderground v.1.15,2013-11-03 14:10:00,
2013-11-03 09:15:00,37.2,33.4,30.38,SE,124,3.0,6.0,86,0.00,,,0.00,Wunderground v.1.15,2013-11-03 14:15:00,
2013-11-03 09:25:00,37.7,33.9,30.38,East,81,3.0,4.0,86,0.00,,,0.00,Wunderground v.1.15,2013-11-03 14:25:00,
2013-11-03 09:30:00,37.9,34.1,30.38,ESE,115,3.0,3.0,86,0.00,,,0.00,Wunderground v.1.15,2013-11-03 14:30:00,
2013-11-03 09:35:00,38.2,34.1,30.38,ESE,113,3.0,3.0,85,0.00,,,0.00,Wunderground v.1.15,2013-11-03 14:35:00,
2013-11-03 09:40:00,38.8,34.7,30.38,SE,125,3.0,5.0,85,0.00,,,0.00,Wunderground v.1.15,2013-11-03 14:40:00,
2013-11-03 09:45:00,39.0,34.3,30.38,ESE,105,3.0,5.0,83,0.00,,,0.00,Wunderground v.1.15,2013-11-03 14:45:00,
2013-11-03 09:50:00,38.9,34.2,30.38,ESE,110,3.0,3.0,83,0.00,,,0.00,Wunderground v.1.15,2013-11-03 14:50:00,
2013-11-03 10:00:00,40.4,35.3,30.38,SSE,155,4.0,4.0,82,0.00,,,0.00,Wunderground v.1.15,2013-11-03 15:00:00,
2013-11-03 10:10:00,41.1,35.4,30.39,NE,41,4.0,4.0,80,0.00,,,0.00,Wunderground v.1.15,2013-11-03 15:10:00,
2013-11-03 10:15:00,41.2,35.5,30.39,ESE,113,4.0,5.0,80,0.00,,,0.00,Wunderground v.1.15,2013-11-03 15:15:00,
2013-11-03 10:20:00,41.4,35.4,30.39,SE,133,5.0,6.0,79,0.00,,,0.00,Wunderground v.1.15,2013-11-03 15:20:00,
2013-11-03 10:25:00,41.6,35.6,30.39,ESE,122,6.0,6.0,79,0.00,,,0.00,Wunderground v.1.15,2013-11-03 15:25:00,
2013-11-03 10:30:00,42.0,35.6,30.40,ESE,110,5.0,5.0,78,0.00,,,0.00,Wunderground v.1.15,2013-11-03 15:30:00,
2013-11-03 10:35:00,41.9,35.9,30.40,ESE,121,4.0,5.0,79,0.00,,,0.00,Wunderground v.1.15,2013-11-03 15:35:00,
2013-11-03 10:40:00,42.2,36.8,30.40,South,186,4.0,4.0,81,0.00,,,0.00,Wunderground v.1.15,2013-11-03 15:40:00,
2013-11-03 10:45:00,42.4,36.0,30.40,South,177,5.0,5.0,78,0.00,,,0.00,Wunderground v.1.15,2013-11-03 15:45:00,
2013-11-03 10:50:00,42.4,36.0,30.40,ESE,107,5.0,5.0,78,0.00,,,0.00,Wunderground v.1.15,2013-11-03 15:50:00,
2013-11-03 11:00:00,42.7,36.3,30.40,SSW,194,3.0,6.0,78,0.00,,,0.00,Wunderground v.1.15,2013-11-03 16:00:00,
2013-11-03 11:10:00,43.0,37.6,30.40,SE,134,4.0,5.0,81,0.00,,,0.00,Wunderground v.1.15,2013-11-03 16:10:00,
2013-11-03 11:15:00,43.2,37.4,30.40,South,169,3.0,6.0,80,0.00,,,0.00,Wunderground v.1.15,2013-11-03 16:15:00,
2013-11-03 11:20:00,43.2,36.1,30.40,SSW,198,3.0,3.0,76,0.00,,,0.00,Wunderground v.1.15,2013-11-03 16:20:00,
2013-11-03 11:25:00,43.5,37.4,30.40,ESE,112,4.0,6.0,79,0.00,,,0.00,Wunderground v.1.15,2013-11-03 16:25:00,
2013-11-03 11:35:00,44.1,37.7,30.40,South,188,4.0,4.0,78,0.00,,,0.00,Wunderground v.1.15,2013-11-03 16:35:00,
2013-11-03 11:40:00,44.4,36.6,30.39,South,176,4.0,4.0,74,0.00,,,0.00,Wunderground v.1.15,2013-11-03 16:40:00,
2013-11-03 11:45:00,44.5,36.7,30.40,ESE,115,4.0,4.0,74,0.00,,,0.00,Wunderground v.1.15,2013-11-03 16:45:00,
2013-11-03 11:50:00,44.6,37.5,30.40,SE,126,4.0,4.0,76,0.00,,,0.00,Wunderground v.1.15,2013-11-03 16:50:00,
2013-11-03 11:55:00,44.9,37.8,30.39,ESE,115,4.0,4.0,76,0.00,,,0.00,Wunderground v.1.15,2013-11-03 16:55:00,
2013-11-03 12:00:00,45.0,36.9,30.39,ESE,117,4.0,6.0,73,0.00,,,0.00,Wunderground v.1.15,2013-11-03 17:00:00,
2013-11-03 12:10:00,45.5,37.0,30.39,SSE,148,4.0,4.0,72,0.00,,,0.00,Wunderground v.1.15,2013-11-03 17:10:00,
2013-11-03 12:15:00,45.6,36.7,30.39,SSW,210,4.0,4.0,71,0.00,,,0.00,Wunderground v.1.15,2013-11-03 17:15:00,
2013-11-03 12:20:00,45.6,37.1,30.39,SE,125,4.0,4.0,72,0.00,,,0.00,Wunderground v.1.15,2013-11-03 17:20:00,
2013-11-03 12:25:00,45.6,36.7,30.38,ESE,115,5.0,6.0,71,0.00,,,0.00,Wunderground v.1.15,2013-11-03 17:25:00,
2013-11-03 12:30:00,45.9,37.7,30.38,ESE,107,5.0,5.0,73,0.00,,,0.00,Wunderground v.1.15,2013-11-03 17:30:00,
2013-11-03 12:40:00,46.0,36.8,30.38,SE,125,4.0,4.0,70,0.00,,,0.00,Wunderground v.1.15,2013-11-03 17:40:00,
2013-11-03 12:45:00,46.0,36.4,30.37,ESE,110,4.0,4.0,69,0.00,,,0.00,Wunderground v.1.15,2013-11-03 17:45:00,
2013-11-03 12:50:00,46.1,36.9,30.37,SE,139,4.0,4.0,70,0.00,,,0.00,Wunderground v.1.15,2013-11-03 17:50:00,
2013-11-03 12:55:00,46.4,37.5,30.37,SE,139,3.0,4.0,71,0.00,,,0.00,Wunderground v.1.15,2013-11-03 17:55:00,
2013-11-03 13:00:00,46.8,37.2,30.37,SSE,148,4.0,4.0,69,0.00,,,0.00,Wunderground v.1.15,2013-11-03 18:00:00,
2013-11-03 13:10:00,47.7,37.7,30.36,ESE,110,4.0,7.0,68,0.00,,,0.00,Wunderground v.1.15,2013-11-03 18:10:00,
2013-11-03 13:15:00,47.5,37.1,30.36,SE,137,5.0,7.0,67,0.00,,,0.00,Wunderground v.1.15,2013-11-03 18:15:00,
2013-11-03 13:20:00,47.5,37.8,30.36,SSE,163,4.0,4.0,69,0.00,,,0.00,Wunderground v.1.15,2013-11-03 18:20:00,
2013-11-03 13:25:00,47.3,36.9,30.36,SE,142,4.0,4.0,67,0.00,,,0.00,Wunderground v.1.15,2013-11-03 18:25:00,
2013-11-03 13:30:00,47.5,37.5,30.36,SSE,153,4.0,4.0,68,0.00,,,0.00,Wunderground v.1.15,2013-11-03 18:30:00,
2013-11-03 13:35:00,47.0,36.2,30.36,South,190,4.0,4.0,66,0.00,,,0.00,Wunderground v.1.15,2013-11-03 18:35:00,
2013-11-03 13:40:00,46.5,36.1,30.36,South,184,3.0,3.0,67,0.00,,,0.00,Wunderground v.1.15,2013-11-03 18:40:00,
2013-11-03 13:45:00,46.2,36.2,30.36,SE,141,4.0,4.0,68,0.00,,,0.00,Wunderground v.1.15,2013-11-03 18:45:00,
2013-11-03 13:50:00,45.9,36.7,30.36,SE,134,5.0,5.0,70,0.00,,,0.00,Wunderground v.1.15,2013-11-03 18:50:00,
2013-11-03 13:55:00,45.8,36.2,30.36,SE,131,5.0,5.0,69,0.00,,,0.00,Wunderground v.1.15,2013-11-03 18:55:00,
2013-11-03 14:00:00,46.2,36.2,30.36,SE,129,4.0,4.0,68,0.00,,,0.00,Wunderground v.1.15,2013-11-03 19:00:00,
2013-11-03 14:10:00,46.1,37.2,30.36,ESE,118,5.0,5.0,71,0.00,,,0.00,Wunderground v.1.15,2013-11-03 19:10:00,
2013-11-03 14:15:00,45.9,36.7,30.36,ESE,120,6.0,6.0,70,0.00,,,0.00,Wunderground v.1.15,2013-11-03 19:15:00,
2013-11-03 14:20:00,46.0,36.4,30.36,SE,125,4.0,4.0,69,0.00,,,0.00,Wunderground v.1.15,2013-11-03 19:20:00,
2013-11-03 14:25:00,46.0,36.4,30.36,ESE,115,3.0,5.0,69,0.00,,,0.00,Wunderground v.1.15,2013-11-03 19:25:00,
2013-11-03 14:30:00,46.1,36.5,30.36,SE,134,4.0,4.0,69,0.00,,,0.00,Wunderground v.1.15,2013-11-03 19:30:00,
2013-11-03 14:35:00,46.5,36.9,30.36,SE,128,3.0,4.0,69,0.00,,,0.00,Wunderground v.1.15,2013-11-03 19:35:00,
2013-11-03 14:45:00,47.5,37.1,30.36,West,269,3.0,4.0,67,0.00,,,0.00,Wunderground v.1.15,2013-11-03 19:45:00,
2013-11-03 14:50:00,48.1,36.5,30.36,South,169,4.0,4.0,64,0.00,,,0.00,Wunderground v.1.15,2013-11-03 19:50:00,
2013-11-03 14:55:00,48.6,37.0,30.36,SSW,192,4.0,4.0,64,0.00,,,0.00,Wunderground v.1.15,2013-11-03 19:55:00,
2013-11-03 15:00:00,49.0,37.3,30.36,SSE,152,5.0,5.0,64,0.00,,,0.00,Wunderground v.1.15,2013-11-03 20:00:00,
2013-11-03 15:10:00,48.7,36.7,30.36,SSE,159,4.0,4.0,63,0.00,,,0.00,Wunderground v.1.15,2013-11-03 20:10:00,
2013-11-03 15:20:00,47.1,36.3,30.36,South,172,4.0,4.0,66,0.00,,,0.00,Wunderground v.1.15,2013-11-03 20:20:00,
2013-11-03 15:25:00,46.7,36.7,30.36,SSE,148,3.0,4.0,68,0.00,,,0.00,Wunderground v.1.15,2013-11-03 20:25:00,
2013-11-03 15:30:00,46.4,36.8,30.36,SE,142,3.0,3.0,69,0.00,,,0.00,Wunderground v.1.15,2013-11-03 20:30:00,
2013-11-03 15:35:00,46.4,36.8,30.36,SSE,168,3.0,4.0,69,0.00,,,0.00,Wunderground v.1.15,2013-11-03 20:35:00,
2013-11-03 15:40:00,46.4,37.1,30.37,SSW,194,2.0,2.0,70,0.00,,,0.00,Wunderground v.1.15,2013-11-03 20:40:00,
2013-11-03 15:50:00,46.7,37.1,30.37,South,169,2.0,2.0,69,0.00,,,0.00,Wunderground v.1.15,2013-11-03 20:50:00,
2013-11-03 15:55:00,46.8,36.8,30.37,SSE,150,2.0,2.0,68,0.00,,,0.00,Wunderground v.1.15,2013-11-03 20:55:00,
2013-11-03 16:05:00,46.7,36.7,30.37,SSW,198,3.0,5.0,68,0.00,,,0.00,Wunderground v.1.15,2013-11-03 21:05:00,
2013-11-03 16:10:00,46.7,37.1,30.37,South,174,3.0,4.0,69,0.00,,,0.00,Wunderground v.1.15,2013-11-03 21:10:00,
2013-11-03 16:15:00,46.5,36.5,30.37,SE,136,3.0,4.0,68,0.00,,,0.00,Wunderground v.1.15,2013-11-03 21:15:00,
2013-11-03 16:25:00,46.4,37.1,30.36,SE,136,3.0,4.0,70,0.00,,,0.00,Wunderground v.1.15,2013-11-03 21:25:00,
2013-11-03 16:30:00,46.3,37.8,30.36,SSE,156,3.0,3.0,72,0.00,,,0.00,Wunderground v.1.15,2013-11-03 21:30:00,
2013-11-03 16:35:00,46.3,37.8,30.36,ESE,113,1.0,3.0,72,0.00,,,0.00,Wunderground v.1.15,2013-11-03 21:35:00,
2013-11-03 16:40:00,46.3,38.1,30.36,SSE,156,1.0,1.0,73,0.00,,,0.00,Wunderground v.1.15,2013-11-03 21:40:00,
2013-11-03 16:45:00,46.3,37.8,30.37,SSE,158,2.0,2.0,72,0.00,,,0.00,Wunderground v.1.15,2013-11-03 21:45:00,
2013-11-03 16:55:00,46.1,37.6,30.37,SE,131,1.0,4.0,72,0.00,,,0.00,Wunderground v.1.15,2013-11-03 21:55:00,
2013-11-03 17:00:00,46.0,37.8,30.37,ESE,118,1.0,1.0,73,0.00,,,0.00,Wunderground v.1.15,2013-11-03 22:00:00,
2013-11-03 17:10:00,45.9,37.4,30.36,SE,139,2.0,3.0,72,0.00,,,0.00,Wunderground v.1.15,2013-11-03 22:10:00,
2013-11-03 17:15:00,45.8,38.0,30.37,ESE,113,2.0,3.0,74,0.00,,,0.00,Wunderground v.1.15,2013-11-03 22:15:00,
2013-11-03 17:20:00,45.7,37.9,30.37,SE,140,3.0,3.0,74,0.00,,,0.00,Wunderground v.1.15,2013-11-03 22:20:00,
2013-11-03 17:25:00,45.7,37.9,30.37,SSE,159,2.0,3.0,74,0.00,,,0.00,Wunderground v.1.15,2013-11-03 22:25:00,
2013-11-03 17:30:00,45.6,38.1,30.37,SE,139,1.0,3.0,75,0.00,,,0.00,Wunderground v.1.15,2013-11-03 22:30:00,
2013-11-03 17:35:00,45.5,37.7,30.37,SE,128,3.0,5.0,74,0.00,,,0.00,Wunderground v.1.15,2013-11-03 22:35:00,
2013-11-03 17:40:00,45.5,37.7,30.37,SE,138,4.0,6.0,74,0.00,,,0.00,Wunderground v.1.15,2013-11-03 22:40:00,
2013-11-03 17:45:00,45.5,37.3,30.38,SE,130,4.0,7.0,73,0.00,,,0.00,Wunderground v.1.15,2013-11-03 22:45:00,
2013-11-03 17:50:00,45.4,37.6,30.38,SE,124,5.0,5.0,74,0.00,,,0.00,Wunderground v.1.15,2013-11-03 22:50:00,
2013-11-03 18:05:00,44.7,37.6,30.38,SE,125,4.0,4.0,76,0.00,,,0.00,Wunderground v.1.15,2013-11-03 23:05:00,
2013-11-03 18:10:00,44.4,37.6,30.38,SE,135,4.0,4.0,77,0.00,,,0.00,Wunderground v.1.15,2013-11-03 23:10:00,
2013-11-03 18:15:00,44.1,37.3,30.38,ESE,116,4.0,4.0,77,0.00,,,0.00,Wunderground v.1.15,2013-11-03 23:15:00,
2013-11-03 18:20:00,43.6,37.2,30.38,ESE,116,4.0,4.0,78,0.00,,,0.00,Wunderground v.1.15,2013-11-03 23:20:00,
2013-11-03 18:25:00,43.2,37.1,30.38,ESE,107,3.0,4.0,79,0.00,,,0.00,Wunderground v.1.15,2013-11-03 23:25:00,
2013-11-03 18:35:00,42.8,37.1,30.38,SE,142,3.0,4.0,80,0.00,,,0.00,Wunderground v.1.15,2013-11-03 23:35:00,
2013-11-03 18:40:00,42.6,36.9,30.38,SE,124,3.0,4.0,80,0.00,,,0.00,Wunderground v.1.15,2013-11-03 23:40:00,
2013-11-03 18:45:00,42.5,36.8,30.38,ESE,108,3.0,4.0,80,0.00,,,0.00,Wunderground v.1.15,2013-11-03 23:45:00,
2013-11-03 18:50:00,42.4,37.0,30.38,ESE,107,2.0,2.0,81,0.00,,,0.00,Wunderground v.1.15,2013-11-03 23:50:00,
2013-11-03 18:55:00,42.5,37.1,30.38,SSE,150,3.0,4.0,81,0.00,,,0.00,Wunderground v.1.15,2013-11-03 23:55:00,
2013-11-03 19:00:00,42.7,37.0,30.38,SE,124,4.0,4.0,80,0.00,,,0.00,Wunderground v.1.15,2013-11-04 00:00:00,
2013-11-03 19:10:00,42.5,36.8,30.38,ESE,115,4.0,5.0,80,0.00,,,0.00,Wunderground v.1.15,2013-11-04 00:10:00,
2013-11-03 19:15:00,42.5,36.8,30.39,ESE,104,4.0,6.0,80,0.00,,,0.00,Wunderground v.1.15,2013-11-04 00:15:00,
2013-11-03 19:20:00,42.5,36.8,30.39,ESE,118,4.0,6.0,80,0.00,,,0.00,Wunderground v.1.15,2013-11-04 00:20:00,
2013-11-03 19:25:00,42.3,36.6,30.39,SE,124,4.0,6.0,80,0.00,,,0.00,Wunderground v.1.15,2013-11-04 00:25:00,
2013-11-03 19:30:00,42.1,36.7,30.39,ESE,108,4.0,5.0,81,0.00,,,0.00,Wunderground v.1.15,2013-11-04 00:30:00,
2013-11-03 19:40:00,41.6,36.2,30.39,ESE,107,4.0,4.0,81,0.00,,,0.00,Wunderground v.1.15,2013-11-04 00:40:00,
2013-11-03 19:45:00,41.4,36.0,30.39,SE,131,4.0,4.0,81,0.00,,,0.00,Wunderground v.1.15,2013-11-04 00:45:00,
2013-11-03 19:50:00,41.0,35.9,30.39,ESE,113,3.0,4.0,82,0.00,,,0.00,Wunderground v.1.15,2013-11-04 00:50:00,
2013-11-03 19:55:00,40.7,35.9,30.39,ESE,116,3.0,4.0,83,0.00,,,0.00,Wunderground v.1.15,2013-11-04 00:55:00,
2013-11-03 20:00:00,40.6,35.8,30.39,ESE,110,3.0,4.0,83,0.00,,,0.00,Wunderground v.1.15,2013-11-04 01:00:00,
2013-11-03 20:10:00,40.3,35.5,30.39,East,96,4.0,4.0,83,0.00,,,0.00,Wunderground v.1.15,2013-11-04 01:10:00,
2013-11-03 20:15:00,40.4,35.6,30.39,ESE,118,4.0,4.0,83,0.00,,,0.00,Wunderground v.1.15,2013-11-04 01:15:00,
2013-11-03 20:20:00,40.5,35.7,30.39,ESE,120,4.0,6.0,83,0.00,,,0.00,Wunderground v.1.15,2013-11-04 01:20:00,
2013-11-03 20:25:00,40.4,35.6,30.39,ESE,113,4.0,6.0,83,0.00,,,0.00,Wunderground v.1.15,2013-11-04 01:25:00,
2013-11-03 20:30:00,40.1,35.7,30.39,SE,129,4.0,4.0,84,0.00,,,0.00,Wunderground v.1.15,2013-11-04 01:30:00,
2013-11-03 20:35:00,39.9,35.5,30.39,SE,131,5.0,7.0,84,0.00,,,0.00,Wunderground v.1.15,2013-11-04 01:35:00,
2013-11-03 20:45:00,39.9,35.5,30.39,ESE,118,6.0,6.0,84,0.00,,,0.00,Wunderground v.1.15,2013-11-04 01:45:00,
2013-11-03 20:50:00,39.9,35.5,30.39,SE,131,5.0,9.0,84,0.00,,,0.00,Wunderground v.1.15,2013-11-04 01:50:00,
2013-11-03 20:55:00,40.1,35.4,30.39,SE,126,6.0,9.0,83,0.00,,,0.00,Wunderground v.1.15,2013-11-04 01:55:00,
2013-11-03 21:00:00,40.3,35.5,30.39,ESE,110,7.0,8.0,83,0.00,,,0.00,Wunderground v.1.15,2013-11-04 02:00:00,
2013-11-03 21:10:00,40.4,35.3,30.39,ESE,115,8.0,8.0,82,0.00,,,0.00,Wunderground v.1.15,2013-11-04 02:10:00,
2013-11-03 21:15:00,40.2,35.1,30.39,ESE,110,7.0,8.0,82,0.00,,,0.00,Wunderground v.1.15,2013-11-04 02:15:00,
2013-11-03 21:20:00,40.1,35.4,30.40,ESE,122,7.0,7.0,83,0.00,,,0.00,Wunderground v.1.15,2013-11-04 02:20:00,
2013-11-03 21:25:00,40.1,35.0,30.40,ESE,113,7.0,7.0,82,0.00,,,0.00,Wunderground v.1.15,2013-11-04 02:25:00,
2013-11-03 21:30:00,39.9,35.2,30.40,ESE,103,7.0,7.0,83,0.00,,,0.00,Wunderground v.1.15,2013-11-04 02:30:00,
2013-11-03 21:35:00,39.6,34.9,30.40,ESE,110,6.0,7.0,83,0.00,,,0.00,Wunderground v.1.15,2013-11-04 02:35:00,
2013-11-03 21:40:00,39.4,35.0,30.40,SE,132,6.0,11.0,84,0.00,,,0.00,Wunderground v.1.15,2013-11-04 02:40:00,
2013-11-03 21:45:00,39.4,35.0,30.41,ESE,113,6.0,11.0,84,0.00,,,0.00,Wunderground v.1.15,2013-11-04 02:45:00,
2013-11-03 21:50:00,39.3,34.9,30.41,SE,132,7.0,10.0,84,0.00,,,0.00,Wunderground v.1.15,2013-11-04 02:50:00,
2013-11-03 21:55:00,39.2,34.8,30.41,ESE,121,7.0,10.0,84,0.00,,,0.00,Wunderground v.1.15,2013-11-04 02:55:00,
2013-11-03 22:00:00,39.3,34.9,30.41,SE,143,8.0,8.0,84,0.00,,,0.00,Wunderground v.1.15,2013-11-04 03:00:00,
2013-11-03 22:10:00,39.0,34.9,30.41,ESE,115,7.0,9.0,85,0.00,,,0.00,Wunderground v.1.15,2013-11-04 03:10:00,
2013-11-03 22:20:00,38.8,34.7,30.42,ESE,121,7.0,7.0,85,0.00,,,0.00,Wunderground v.1.15,2013-11-04 03:20:00,
2013-11-03 22:25:00,38.6,34.5,30.42,SE,128,7.0,7.0,85,0.00,,,0.00,Wunderground v.1.15,2013-11-04 03:25:00,
2013-11-03 22:30:00,38.6,34.8,30.42,ENE,58,7.0,7.0,86,0.00,,,0.00,Wunderground v.1.15,2013-11-04 03:30:00,
2013-11-03 22:35:00,38.6,34.8,30.42,ESE,104,8.0,8.0,86,0.00,,,0.00,Wunderground v.1.15,2013-11-04 03:35:00,
2013-11-03 22:40:00,38.5,34.7,30.42,SE,124,8.0,9.0,86,0.00,,,0.00,Wunderground v.1.15,2013-11-04 03:40:00,
2013-11-03 22:50:00,38.3,34.8,30.42,SE,129,8.0,8.0,87,0.00,,,0.00,Wunderground v.1.15,2013-11-04 03:50:00,
2013-11-03 22:55:00,38.2,34.7,30.42,SE,131,7.0,8.0,87,0.00,,,0.00,Wunderground v.1.15,2013-11-04 03:55:00,
2013-11-03 23:00:00,38.1,34.6,30.42,SE,136,7.0,7.0,87,0.00,,,0.00,Wunderground v.1.15,2013-11-04 04:00:00,
2013-11-03 23:10:00,37.9,34.7,30.43,ESE,122,7.0,9.0,88,0.00,,,0.00,Wunderground v.1.15,2013-11-04 04:10:00,
2013-11-03 23:15:00,37.7,34.5,30.42,ESE,113,7.0,9.0,88,0.00,,,0.00,Wunderground v.1.15,2013-11-04 04:15:00,
2013-11-03 23:25:00,37.6,34.4,30.42,ESE,118,7.0,9.0,88,0.00,,,0.00,Wunderground v.1.15,2013-11-04 04:25:00,
2013-11-03 23:30:00,37.5,34.3,30.42,SE,145,8.0,8.0,88,0.00,,,0.00,Wunderground v.1.15,2013-11-04 04:30:00,
2013-11-03 23:35:00,37.5,34.3,30.42,SE,131,7.0,8.0,88,0.00,,,0.00,Wunderground v.1.15,2013-11-04 04:35:00,
2013-11-03 23:40:00,37.5,34.3,30.42,SE,128,7.0,7.0,88,0.00,,,0.00,Wunderground v.1.15,2013-11-04 04:40:00,
2013-11-03 23:45:00,37.5,34.6,30.42,SE,129,7.0,7.0,89,0.00,,,0.00,Wunderground v.1.15,2013-11-04 04:45:00,
2013-11-03 23:55:00,37.2,34.3,30.42,ESE,119,7.0,7.0,89,0.00,,,0.00,Wunderground v.1.15,2013-11-04 04:55:00,